Location: Camerons Lookout
(40.9833°S, 175.9333°E)
Time: 08:27:29
(UTC+00:00)

Cosmos 1656 - Pass Details

Date: 14 January 2026
Orbit: 797 x 847 km, 71.1° (Epoch: 16 February)

Event Time Altitude Azimuth Distance (km) Brightness Sun altitude
Exits shadow 09:48:17 - 336° (NNW) 2,841 6.2 -17.9°
Reaches altitude 10° 09:49:30 10° 336° (NNW) 2,375 5.8 -18.0°
Maximum altitude 09:54:56 84° 248° (WSW) 816 3.6 -18.6°
Drops below altitude 10° 10:00:26 10° 158° (SSE) 2,403 6.5 -19.3°
Sets 10:02:53 0° 157° (SSE) 3,343 7.3 -19.5°
